Weather History for Boston, MA

Change the Weather History Date:

Wednesday, April 24, 2013

  Actual Average Record
Temperature  
Mean Temperature 56 °F 51 °F  
Max Temperature 69 °F 59 °F 84 °F (2001)
Min Temperature 43 °F 43 °F 28 °F (1882)
Degree Days  
Heating Degree Days 9 14  
Month to date heating degree days 405 431  
Since 1 July heating degree days 5046 5302  
Cooling Degree Days 0 0  
Month to date cooling degree days 0 0  
Year to date cooling degree days 0 0  
Growing Degree Days 6 (Base 50)    
Moisture  
Dew Point 44 °F    
Average Humidity 68    
Maximum Humidity 96    
Minimum Humidity 40    
Precipitation  
Precipitation T in 0.11 in 1.95 in (1983)
Month to date precipitation 1.34 3.06  
Year to date precipitation 11.00 13.99  
Sea Level Pressure  
Sea Level Pressure 29.92 in    
Wind  
Wind Speed 15 mph (NNW)    
Max Wind Speed 23 mph    
Max Gust Speed 33 mph    
Visibility 8 miles    
Events Rain    
T = Trace of Precipitation, MM = Missing Value Source: NWS Daily Summary

Daily Weather History Graph

Daily Weather History Graph

Search for Another Location

Airport:

Trip Planner

Search our weather history database for the weather conditions in past years. The results will help you decide how hot, cold, wet, or windy it might be!

Date:

Astronomy

Apr. 24, 2013 Rise Set
Actual Time 5:48 AM EDT 7:36 PM EDT
Civil Twilight 5:18 AM EDT 8:06 PM EDT
Nautical Twilight 4:42 AM EDT 8:42 PM EDT
Astronomical Twilight 4:03 AM EDT 9:22 PM EDT
Moon 6:35 PM EDT (4/24) 4:52 AM EDT (4/24)
Length of Visible Light 14h 47m
Length of Day
13h 47m
Waxing Gibbous, 98% of the Moon is Illuminated
Apr 24
Waxing Gibbous
Apr 25
Full
May 2
Last Quarter
May 9
New
May 18
First Quarter

Hourly Weather History & Observations

Time (EDT) Temp. Windchill Dew Point Humidity Pressure Visibility Wind Dir Wind Speed Gust Speed Precip Events Conditions
12:54 AM 43.0 °F 35.1 °F 41.0 °F 93% 30.07 in 2.0 mi North 17.3 mph - 0.00 in Rain Light Rain
1:29 AM 42.8 °F 34.3 °F 39.2 °F 87% 30.04 in 2.0 mi NNE 19.6 mph 26.5 mph 0.00 in   Overcast
1:54 AM 43.0 °F 35.1 °F 41.0 °F 93% 30.02 in 2.0 mi NNE 17.3 mph 23.0 mph 0.00 in   Overcast
2:06 AM 42.8 °F 35.1 °F 39.2 °F 87% 30.01 in 4.0 mi NNE 16.1 mph 25.3 mph N/A   Overcast
2:54 AM 43.0 °F 34.8 °F 41.0 °F 93% 29.99 in 6.0 mi North 18.4 mph 28.8 mph N/A   Overcast
3:54 AM 43.0 °F 35.4 °F 41.0 °F 93% 29.98 in 10.0 mi North 16.1 mph 24.2 mph N/A   Overcast
4:54 AM 43.0 °F 36.0 °F 41.0 °F 93% 29.97 in 6.0 mi NNW 13.8 mph 21.9 mph N/A   Overcast
5:54 AM 43.0 °F 37.2 °F 41.0 °F 93% 29.96 in 6.0 mi NNW 10.4 mph - N/A   Overcast
6:54 AM 44.1 °F 36.8 °F 41.0 °F 89% 29.96 in 7.0 mi NNW 16.1 mph - N/A   Overcast
7:38 AM 44.6 °F 38.4 °F 42.8 °F 93% 29.95 in 2.5 mi NW 12.7 mph 25.3 mph N/A   Overcast
7:50 AM 44.6 °F 37.4 °F 42.8 °F 93% 29.95 in 8.0 mi NNW 16.1 mph 24.2 mph 0.00 in   Overcast
7:54 AM 44.1 °F 36.8 °F 42.1 °F 93% 29.95 in 10.0 mi NW 16.1 mph 24.2 mph 0.00 in   Overcast
8:15 AM 44.6 °F 38.8 °F 42.8 °F 93% 29.95 in 10.0 mi NNW 11.5 mph - N/A   Overcast
8:54 AM 46.9 °F - 42.1 °F 83% 29.96 in 10.0 mi NNW 11.5 mph - N/A   Overcast
9:19 AM 48.2 °F - 42.8 °F 82% 29.96 in 10.0 mi NW 9.2 mph - N/A   Overcast
9:54 AM 50.0 °F - 43.0 °F 77% 29.95 in 10.0 mi NNW 10.4 mph - N/A   Overcast
10:54 AM 55.0 °F - 45.0 °F 69% 29.93 in 10.0 mi NNW 11.5 mph 19.6 mph N/A   Mostly Cloudy
11:54 AM 57.9 °F - 46.9 °F 67% 29.91 in 10.0 mi North 6.9 mph - N/A   Mostly Cloudy
12:54 PM 57.9 °F - 48.0 °F 70% 29.90 in 10.0 mi SE 10.4 mph - N/A   Scattered Clouds
1:54 PM 59.0 °F - 48.0 °F 67% 29.87 in 10.0 mi SE 11.5 mph - N/A   Scattered Clouds
2:54 PM 61.0 °F - 48.0 °F 62% 29.84 in 10.0 mi ESE 12.7 mph - N/A   Scattered Clouds
3:54 PM 57.0 °F - 46.9 °F 69% 29.83 in 10.0 mi ESE 19.6 mph - N/A   Partly Cloudy
4:54 PM 60.1 °F - 48.0 °F 64% 29.82 in 10.0 mi ESE 9.2 mph - N/A   Mostly Cloudy
5:54 PM 69.1 °F - 45.0 °F 42% 29.80 in 10.0 mi SSW 16.1 mph - N/A   Scattered Clouds
6:54 PM 64.9 °F - 43.0 °F 45% 29.81 in 10.0 mi SSW 20.7 mph - N/A   Partly Cloudy
7:54 PM 57.9 °F - 45.0 °F 62% 29.83 in 10.0 mi South 13.8 mph - N/A   Partly Cloudy
8:54 PM 57.0 °F - 44.1 °F 62% 29.86 in 10.0 mi SW 15.0 mph 24.2 mph N/A   Partly Cloudy
9:54 PM 54.0 °F - 45.0 °F 72% 29.88 in 10.0 mi SSW 15.0 mph - N/A   Partly Cloudy
10:54 PM 51.1 °F - 45.0 °F 80% 29.87 in 10.0 mi SSW 17.3 mph 25.3 mph N/A   Partly Cloudy
11:54 PM 50.0 °F - 45.0 °F 83% 29.86 in 10.0 mi SSW 18.4 mph - N/A   Mostly Cloudy